This demonstration page uses our WeatherBlox Daily Observations layout. Learn more.

Left ArrowRight Arrow

39.08367, -84.50855

Hourly Observations for August 10, 2015

Temp ( °F °C ) Dew Point ( °F °C ) Humidity (%) Winds ( mph kmh ) Pressure ( in mb ) Visibility ( mi km ) Precip ( " mm )
12:53 am 00:53 Cloudy 72 22.2 71 21.7 97 97 N N/A 29.95 1014 8 13 N/A
1:53 am 01:53 Mostly Clear with Mist and Fog 72 22.2 71 21.7 97 97 N N/A 29.93 1014 6 10 N/A
2:53 am 02:53 Cloudy with Mist and Fog 70 21.1 70 21.1 100 100 SSW 3 6 29.92 1013 5 8 N/A
3:53 am 03:53 Cloudy with Mist and Fog 72 22.2 71 21.7 97 97 N N/A 29.90 1012 5 8 N/A
4:53 am 04:53 Cloudy with Mist and Fog 72 22.2 71 21.7 97 97 N N/A 29.88 1012 6 10 N/A
5:53 am 05:53 Cloudy with Mist and Fog 72 22.2 71 21.7 97 97 N N/A 29.88 1012 6 10 N/A
6:53 am 06:53 Cloudy 72 22.2 71 21.7 97 97 undefined N/A 29.87 1012 8 13 N/A
7:53 am 07:53 Cloudy 73 22.8 72 22.2 96 96 N N/A 29.88 1012 10 16 N/A
8:53 am 08:53 Cloudy with Mist and Fog 74 23.3 71 21.7 91 91 N N/A 29.87 1012 4 6 N/A
9:53 am 09:53 Mostly Cloudy 75 23.9 71 21.7 88 88 SSW 5 7 29.87 1012 10 16 N/A
10:53 am 10:53 Mostly Cloudy 78 25.6 72 22.2 82 82 S 8 13 29.88 1012 10 16 N/A
11:53 am 11:53 Mostly Cloudy 81 27.2 75 23.9 82 82 SW 9 15 29.88 1012 10 16 N/A
12:53 pm 12:53 Mostly Cloudy 82 27.8 74 23.3 77 77 SW 12 19 29.85 1011 10 16 N/A
1:00 pm 13:00 Mostly Cloudy 82 28 73 23 74 74 SW 13 20 29.88 1012 9 14 N/A
1:12 pm 13:12 Mostly Cloudy 82 28 75 24 79 79 SW 9 15 29.85 1011 9 14 N/A
1:53 pm 13:53 Mostly Cloudy 84 28.9 74 23.3 72 72 WSW 9 15 29.84 1010 10 16 N/A
2:18 pm 14:18 Cloudy with Thunderstorms 82 28 73 23 74 74 WSW 14 22 29.83 1010 10 16 N/A
2:31 pm 14:31 Mostly Cloudy with Light Rain 83 28.3 76 24.4 79 79 WSW 10 17 29.83 1010 5 8 0.05 1.27
2:53 pm 14:53 Mostly Cloudy 84 28.9 76 24.4 77 77 W 12 19 29.81 1009 10 16 0.05 1.27
3:53 pm 15:53 Partly Cloudy 85 29.4 74 23.3 70 70 WSW 15 24 29.78 1009 10 16 N/A
4:53 pm 16:53 Mostly Cloudy 85 29.4 74 23.3 70 70 W 13 20 29.77 1008 10 16 N/A
5:53 pm 17:53 Partly Cloudy 85 29.4 75 23.9 72 72 SW 9 15 29.75 1008 10 16 N/A
6:38 pm 18:38 Mostly Cloudy 82 28 72 22 70 70 NNW 23 37 29.80 1009 10 16 N/A
6:53 pm 18:53 Cloudy with Nearby Thunderstorms 73 22.8 67 19.4 81 81 N 6 9 29.79 1009 3 5 0.08 2.03
7:01 pm 19:01 Cloudy with Thunderstorms 74 23.3 68 20 82 82 VRB 5 7 29.80 1009 4 6 0.02 0.51
7:53 pm 19:53 Cloudy 72 22.2 69 20.6 91 91 S 9 15 29.81 1009 8 13 0.12 3.05
8:53 pm 20:53 Mostly Cloudy 70 21.1 69 20.6 97 97 N N/A 29.82 1010 10 16 N/A
9:53 pm 21:53 Clear 69 20.6 69 20.6 100 100 N N/A 29.83 1010 9 14 N/A
10:53 pm 22:53 Clear with Mist and Fog 68 20 68 20 100 100 N N/A 29.84 1011 2 3 N/A
11:03 pm 23:03 Clear with Mist and Fog 70 21 70 21 100 100 N N/A 29.85 1011 4 6 N/A
11:53 pm 23:53 Clear 69 20.6 69 20.6 100 100 N N/A 29.85 1011 7 11 N/A

Powered by AerisWeather